This is the latest recevied weather packets stored in our database for station/object K9NZF-2. If no packets are shown the sender has not sent any weather packets the latest 1 day(s).
| Time | Temp. | Humidity | Pressure | Rain* | Wind** | Luminosity | Snow |
|---|---|---|---|---|---|---|---|
| 1778039944 | 6.67° C | 94% | 971.3 hPa | 2.03 mm | 1.34 m/s, 26° | - | - |
| 1778039884 | 6.67° C | 94% | 971.3 hPa | 1.78 mm | 1.34 m/s, 12° | - | - |
| 1778039822 | 6.67° C | 94% | 971.3 hPa | 1.78 mm | 1.34 m/s, 34° | - | - |
| 1778039764 | 6.67° C | 94% | 971.4 hPa | 1.52 mm | 1.34 m/s, 347° | - | - |
| 1778039703 | 6.67° C | 94% | 971.4 hPa | 1.78 mm | 1.34 m/s, 18° | - | - |
| 1778039644 | 6.67° C | 94% | 971.6 hPa | 1.78 mm | 1.34 m/s, 340° | - | - |
| 1778039583 | 6.67° C | 94% | 971.6 hPa | 1.52 mm | 1.79 m/s, 347° | - | - |
| 1778039525 | 6.67° C | 94% | 971.6 hPa | 1.52 mm | 1.79 m/s, 23° | - | - |
| 1778039464 | 6.67° C | 94% | 971.6 hPa | 1.52 mm | 1.79 m/s, 32° | - | - |
| 1778039402 | 6.67° C | 94% | 971.6 hPa | 1.52 mm | 1.79 m/s, 347° | - | - |
| 1778039344 | 6.67° C | 94% | 971.5 hPa | 1.52 mm | 1.79 m/s, 331° | - | - |
| 1778039282 | 6.67° C | 94% | 971.4 hPa | 1.78 mm | 1.79 m/s, 18° | - | - |
| 1778039222 | 6.67° C | 94% | 971.2 hPa | 1.78 mm | 1.34 m/s, 322° | - | - |
| 1778039163 | 6.67° C | 94% | 971.1 hPa | 1.78 mm | 1.34 m/s, 325° | - | - |
| 1778039102 | 6.67° C | 94% | 971 hPa | 1.78 mm | 1.34 m/s, 27° | - | - |
| 1778039042 | 6.67° C | 94% | 970.9 hPa | 1.78 mm | 1.34 m/s, 8° | - | - |
| 1778038982 | 6.67° C | 94% | 970.8 hPa | 1.78 mm | 1.34 m/s, 39° | - | - |
| 1778038923 | 6.67° C | 94% | 970.7 hPa | 1.78 mm | 1.34 m/s, 323° | - | - |
| 1778038862 | 6.67° C | 94% | 970.6 hPa | 1.78 mm | 1.34 m/s, 332° | - | - |
| 1778038802 | 6.67° C | 94% | 970.6 hPa | 1.78 mm | 1.34 m/s, 13° | - | - |
| 1778038742 | 6.67° C | 94% | 970.6 hPa | 1.78 mm | 1.34 m/s, 0° | - | - |
| 1778038683 | 6.67° C | 94% | 970.6 hPa | 1.78 mm | 1.34 m/s, 25° | - | - |
| 1778038623 | 6.67° C | 94% | 970.5 hPa | 1.78 mm | 1.34 m/s, 0° | - | - |
| 1778038562 | 6.67° C | 94% | 970.5 hPa | 1.78 mm | 1.79 m/s, 19° | - | - |
| 1778038503 | 6.67° C | 94% | 970.4 hPa | 2.03 mm | 1.79 m/s, 21° | - | - |
* Rain latest hour (hover to see other rain measurements)
** Current wind speed in m/s (hover to see current wind gust speed)